Location: Earls Croome
(52.0667°N, 2.2000°W)
Time: 14:11:00
(UTC+00:00)

N. Korean satellite - Visible Passes

Search period start: 26 September 2020 00:00
Search period end: 06 October 2020 00:00
Orbit: 455 x 503 km, 97.2° (Epoch: 25 September)

Date Brightness Start Highest point End Pass type
(mag) Time Alt. Az. Time Alt. Az. Time Alt. Az.
26 Sep 9.7 04:53:46 10° NE 04:56:26 19° E 04:59:03 10° SE visible
27 Sep 10.4 04:29:34 10° ENE 04:30:07 10° E 04:30:41 10° E visible
29 Sep 9.1 05:08:41 10° NE 05:11:49 26° E 05:14:52 10° SSE visible
30 Sep 9.9 04:43:27 10° NE 04:45:32 15° E 04:47:37 10° SE visible
02 Oct 8.3 05:23:43 10° NNE 05:27:08 38° E 05:30:27 10° SSE visible
03 Oct 9.6 04:58:08 10° NE 05:00:54 20° E 05:03:37 10° SE visible
04 Oct 10.2 04:33:25 10° ENE 04:34:35 11° E 04:35:44 10° ESE visible
05 Oct 7.4 05:38:49 10° NNE 05:42:22 56° E 05:45:50 10° S visible
